x

9063020 - Buffalo, Ny (bufn6) Weather Station

5:54pm - Tue 3rd Mar 2015 All times are CST. -6 hours from GMT.

  • Wind
    16mph, 20mph gusts
  • Air Temp 34°f
  • Sea Pressure 1001.5mb
  • 9063020 - Buffalo, Ny
  • 9063020 - Buffalo, Ny

More Historic Weather Station data

Upgrade to MSW Pro to gain access to the past 30 days of data for over 8000 Wavebouys and Weather Stations around the globe.

Join Pro

Comparision Forecast

View Surf forecast
   
Tue 03/03 5:54pm 16 20 mph 1001.5mb 34f
5:48pm 15 18 mph 1001.3mb 34f
5:42pm 14 18 mph 1001.1mb 34f
5:36pm 16 20 mph 1001.4mb 34f
5:30pm 15 18 mph 1001.4mb 34f
5:24pm 11 16 mph 1001mb 34f
5:18pm 14 21 mph 1001.1mb 34f
5:12pm 16 20 mph 1001.3mb 34f
5:06pm 15 24 mph 1001.1mb 34f
5:00pm 15 21 mph 1001.2mb 35f
4:54pm 11 16 mph 1001.4mb 34f
4:48pm 9 13 mph 1001.5mb 33f
4:42pm 8 13 mph 1001.6mb 33f
4:36pm 9 13 mph 1001.8mb 33f
4:30pm 10 16 mph 1002.1mb 33f
4:24pm 13 18 mph 1001.4mb 32f
4:18pm 13 17 mph 1001.5mb 32f
4:12pm 15 18 mph 1002mb 32f
4:06pm 15 20 mph 1002.6mb 32f
4:00pm 14 20 mph 1002.4mb 31f
3:54pm 14 16 mph 1002.6mb 32f
3:48pm 16 20 mph 1003mb 31f
3:42pm 15 21 mph 1003.3mb 31f
3:36pm 15 24 mph 1003.3mb 31f
3:30pm 14 22 mph 1003.7mb 31f
3:24pm 14 21 mph 1004.1mb 31f
3:18pm 15 18 mph 1004.4mb 31f
3:12pm 11 17 mph 1004.8mb 31f
3:06pm 13 16 mph 1005.1mb 30f
3:00pm 13 17 mph 1005.4mb 30f
2:54pm 10 14 mph 1005.9mb 30f
2:48pm 9 16 mph 1006.3mb 29f
2:42pm 11 18 mph 1006.4mb 29f
2:36pm 15 21 mph 1006.5mb 29f
2:30pm 16 22 mph 1006.5mb 29f
2:24pm 16 22 mph 1006.8mb 29f
2:18pm 17 22 mph 1007mb 28f
2:12pm 16 18 mph 1007.2mb 28f
2:06pm 9 15 mph 1007.6mb 27f
2:00pm 11 15 mph 1008mb 26f
1:54pm 8 13 mph 1008.5mb 26f
1:48pm 9 13 mph 1009mb 26f
1:42pm 6 10 mph 1009.3mb 25f
1:36pm 7 9 mph 1009.8mb 25f
1:30pm 6 9 mph 1010mb 25f
1:24pm 7 10 mph 1010.4mb 25f
1:18pm 6 7 mph 1010.7mb 24f
1:12pm 6 10 mph 1010.9mb 24f
1:06pm 7 10 mph 1011.2mb 24f
1:00pm 8 13 mph 1011.4mb 24f
12:54pm 7 11 mph 1011.9mb 23f
12:48pm 9 11 mph 1012.2mb 23f
12:42pm 9 11 mph 1012.6mb 23f
12:36pm 6 11 mph 1013mb 23f
12:30pm 7 10 mph 1013.1mb 23f
12:24pm 8 11 mph 1013.5mb 23f
12:18pm 7 10 mph 1013.8mb 23f
12:12pm 7 9 mph 1014.2mb 23f
12:06pm 6 9 mph 1014.4mb 23f
12:00pm 7 10 mph 1014.6mb 22f
11:54am 7 9 mph 1014.8mb 22f
11:48am 6 11 mph 1015.1mb 22f
11:42am 6 7 mph 1015.4mb 22f
11:36am 3 8 mph 1015.6mb 22f
11:30am 6 8 mph 1015.8mb 22f
11:24am 6 9 mph 1016.3mb 22f
11:18am 7 9 mph 1016.8mb 22f
11:12am 6 9 mph 1017.2mb 21f
11:06am 6 10 mph 1017.4mb 21f
11:00am 6 8 mph 1017.7mb 21f
10:54am 5 6 mph 1018.1mb 21f
10:48am 5 6 mph 1018.3mb 20f
10:42am 3 6 mph 1018.7mb 20f
10:36am 3 6 mph 1019mb 20f
10:30am 6 7 mph 1019mb -
10:24am 5 7 mph 1019.2mb -
10:18am 3 5 mph - 20f
10:12am 2 5 mph - 20f
10:06am 5 7 mph - 19f
10:00am  -  mph 1020.2mb 19f
9:54am  -  mph 1020.4mb 19f
9:48am 6 8 mph - 19f
9:42am 6 8 mph - 19f
9:36am 6 8 mph - 18f
9:30am 6 7 mph - 19f
9:24am 5 7 mph - 19f
9:18am  -  mph 1021.9mb 19f
9:12am  -  mph 1021.9mb 19f
9:06am  -  mph 1021.9mb 19f
9:00am 3 5 mph - 19f
8:54am 2 6 mph - 19f
8:48am 3 6 mph - -
8:42am 5 6 mph - -
8:36am 5 7 mph - -
8:30am  -  mph - 19f
8:24am  -  mph - 19f
8:18am 5 6 mph - -
8:12am 5 7 mph - -
8:06am 3 8 mph - -
8:00am  -  mph 1023mb 17f
7:54am  -  mph 1023.2mb 17f
7:48am 6 8 mph - 17f
7:42am 5 7 mph - 17f
7:36am 5 6 mph - 17f
7:18am 5 6 mph 1023.8mb 16f
7:12am 3 7 mph 1023.8mb 16f
7:06am 5 7 mph 1023.8mb 15f
7:00am 6 9 mph - -
6:54am 6 9 mph - -
6:48am  -  mph 1024mb -
6:42am  -  mph 1024.1mb -
6:36am  -  mph 1024.2mb -
6:30am  -  mph 1024.5mb 15f
6:24am  -  mph 1024.6mb 14f
6:18am  -  mph 1024.8mb 14f
6:12am  -  mph 1025.2mb 14f
6:06am  -  mph 1025.4mb 14f
6:00am 5 8 mph 1025.5mb 13f
5:54am 6 7 mph 1025.5mb 13f
5:48am 6 8 mph - -
5:42am 5 7 mph - -
5:36am 5 7 mph - -
5:30am 5 7 mph 1025.9mb -
5:24am 5 7 mph 1026mb -
5:18am  -  mph 1026.2mb 13f
5:12am  -  mph 1026.3mb 13f
5:06am  -  mph 1026.5mb 13f
5:00am  -  mph 1026.7mb 12f
4:54am  -  mph 1026.9mb 11f
4:48am 3 5 mph - -
4:42am 3 5 mph - -
4:36am 3 5 mph - -
4:30am  -  mph 1027.4mb -
4:24am  -  mph 1027.3mb -
4:18am 2 3 mph - 11f
4:12am 2 3 mph - 11f
4:06am 3 5 mph - 11f
4:00am 2 3 mph 1027mb -
3:54am 3 6 mph 1026.9mb -
3:48am  -  mph 1026.9mb -
3:42am  -  mph 1027.1mb -
3:36am  -  mph 1026.9mb -
3:30am 5 6 mph 1026.9mb 10f
3:24am 5 6 mph 1026.8mb 10f
3:18am  -  mph - 10f
3:12am  -  mph - 10f
3:06am  -  mph - 10f
3:00am  -  mph 1026.8mb 10f
2:54am  -  mph 1026.8mb 7f
2:48am  -  mph 1027.1mb 5f
2:42am 5
mph
1027.1mb 7f
2:36am 2 3 mph 1027.3mb 6f
2:18am  -  mph - 3f
2:12am  -  mph - 4f
2:06am  -  mph - 4f
2:00am 2 3 mph 1027.6mb 3f
1:54am 3 5 mph 1027.6mb 3f
1:48am 3 5 mph 1027.6mb 4f
1:42am 2 3 mph 1027.5mb 5f
1:36am 2 3 mph 1027.4mb 5f
1:30am 1 2 mph 1027.6mb 5f
1:24am 2 3 mph 1027.9mb 4f
1:18am  -  mph - 5f
1:12am  -  mph - 6f
1:06am  -  mph - 5f
1:00am  -  3 mph - -
12:54am 2 3 mph - -
12:30am 2
mph
1028mb 6f
12:00am  -  2 mph - 6f
Mon 03/02 11:54pm  -  mph - 6f
11:48pm  -  mph - 6f
11:42pm  -  mph - 6f
11:36pm  -  mph - 6f
11:30pm  -  mph 1028.8mb -
11:24pm  -  mph 1028.9mb -
11:18pm  -  mph 1029.1mb 7f
11:12pm  -  mph 1029.1mb 7f
11:06pm  -  mph 1029mb 7f
11:00pm  -  mph 1029mb -
10:54pm  -  mph 1029.1mb -
10:48pm  -  mph - 6f
10:42pm  -  mph - 6f
10:24pm  -  mph - 7f
10:18pm  -  mph 1029.5mb 6f
10:12pm  -  mph 1029.5mb 6f
10:06pm  -  mph 1029.4mb 6f
10:00pm  -  mph 1029.4mb 4f
9:54pm 6 8 mph 1029.5mb 4f
9:48pm 3 5 mph 1029.5mb 6f
9:30pm 3 5 mph 1029.5mb 7f
9:24pm 3 5 mph 1029.6mb 8f
9:00pm  -  mph 1029.5mb 11f
8:54pm  -  mph 1029.5mb 10f
8:48pm 2 3 mph - -
8:42pm 1 3 mph - -
8:36pm 1 6 mph - -
8:00pm 8 9 mph 1029.6mb 11f
7:54pm 8 10 mph 1029.6mb 11f
7:48pm  -  mph - 12f
7:42pm  -  mph - 11f
7:36pm  -  mph - 11f
7:30pm  -  mph - 12f
7:24pm  -  mph - 12f
7:18pm  -  mph 1029.5mb 12f
7:12pm  -  mph 1029.5mb 12f
7:06pm  -  mph 1029.5mb 13f
7:00pm 8 9 mph 1029.5mb -
6:54pm 9 10 mph 1029.4mb -
6:48pm 9 10 mph - -
6:42pm 9 10 mph - -
6:36pm 9 11 mph - -
6:30pm  -  mph 1029.6mb -
6:24pm  -  mph 1029.6mb -
6:18pm  -  mph 1029.7mb 13f
6:12pm  -  mph 1029.6mb 15f
6:06pm  -  mph 1029.5mb 15f
6:00pm 9 10 mph - -
5:54pm 9 11 mph - -
5:48pm 11 15 mph - -
5:42pm 11 14 mph - -
5:36pm 11 17 mph - -
5:30pm 13 16 mph - 23f
5:24pm 14 17 mph - 23f
5:18pm 15 20 mph 1029mb 24f
5:12pm 16 21 mph 1028.9mb 24f
5:06pm 18 23 mph 1028.8mb 24f
5:00pm 17 22 mph 1028.7mb 24f
4:54pm 20 23 mph 1028.7mb 24f
4:48pm 18 23 mph 1028.6mb 24f
4:42pm 18 25 mph 1028.5mb 24f
4:36pm 20 24 mph 1028.4mb 25f
4:30pm 16 22 mph 1028.4mb 25f
4:24pm 16 20 mph 1028.3mb 25f
4:18pm 15 20 mph 1028.2mb 25f
4:12pm 15 20 mph 1028.1mb 25f
4:06pm 15 21 mph 1028mb 25f
4:00pm 20 23 mph 1028mb 25f
3:54pm 18 24 mph 1027.9mb 25f
3:48pm 21 23 mph 1027.7mb 25f
3:42pm 18 25 mph 1027.7mb 25f
3:36pm 20 24 mph 1027.7mb 25f
3:30pm 16 24 mph 1027.7mb 25f
3:24pm 18 22 mph 1027.7mb 25f
3:18pm 20 24 mph 1027.7mb 25f
3:12pm 20 24 mph 1027.7mb 25f
3:06pm 21 25 mph 1027.7mb 25f
3:00pm 21 24 mph 1027.7mb 25f
2:54pm 21 28 mph 1027.6mb 25f
2:48pm 21 26 mph 1027.5mb 25f
2:42pm 24 30 mph 1027.5mb 24f
2:36pm 23 30 mph 1027.5mb 24f
2:30pm 23 29 mph 1027.5mb 24f
2:24pm 23 29 mph 1027.4mb 24f
2:18pm 24 30 mph 1027.2mb 24f
2:12pm 28 31 mph 1027mb 24f
2:06pm 28 31 mph 1027mb 24f
2:00pm 24 30 mph 1027mb 24f
1:54pm 26 29 mph 1026.8mb 25f
1:48pm 28 30 mph 1026.7mb 25f
1:42pm 23 30 mph 1026.6mb 24f
1:36pm 26 31 mph 1026.6mb 24f
1:30pm 23 32 mph 1026.6mb 24f
1:24pm 24 31 mph 1026.5mb 24f
1:18pm 26 32 mph 1026.5mb 24f
1:12pm 24 32 mph 1026.6mb 24f
1:06pm 28 30 mph 1026.5mb 24f
1:00pm 28 31 mph 1026.5mb 23f
12:54pm 25 30 mph 1026.4mb 24f
12:48pm 25 31 mph 1026.5mb 24f
12:42pm 26 31 mph 1026.5mb 23f
12:36pm 21 31 mph 1026.6mb 24f
12:30pm 28 32 mph 1026.5mb 23f
12:24pm 26 32 mph 1026.3mb 23f
12:18pm 24 32 mph 1026.4mb 23f
12:12pm 26 33 mph 1026.5mb 23f
12:06pm 26 31 mph 1026.4mb 23f
12:00pm 28 33 mph 1026.4mb 23f
11:54am 26 33 mph 1026.3mb 23f
11:48am 28 32 mph 1026.4mb 22f
11:42am 26 33 mph 1026.4mb 22f
11:36am 23 30 mph 1026.5mb 22f
11:30am 24 32 mph 1026.5mb 22f
11:24am 24 31 mph 1026.5mb 23f
11:18am 25 30 mph 1026.4mb 23f
11:12am 26 31 mph 1026.4mb 23f
11:06am 23 31 mph 1026.2mb 23f
11:00am 28 32 mph 1026.2mb 23f
10:54am 26 31 mph 1026.3mb 23f
10:48am 26 31 mph 1026.1mb 22f
10:42am 26 31 mph 1026mb 22f
10:36am 23 29 mph 1026mb 22f
10:30am 25 30 mph 1025.9mb 22f
10:24am 26 32 mph 1025.8mb 22f
10:18am 29 32 mph 1025.5mb 22f
10:12am 28 31 mph 1025.5mb 22f
10:06am 26 32 mph 1025.5mb 22f
10:00am 28 31 mph 1025.5mb 21f
9:54am 26 31 mph 1025.4mb 21f
9:48am 26 29 mph 1025.4mb 21f
9:42am 26 30 mph 1025.4mb 21f
9:36am 25 29 mph 1025.4mb 21f
9:30am 23 28 mph 1025.5mb 21f
9:24am 22 26 mph 1025.3mb 20f
9:18am 21 24 mph 1025.3mb 20f
9:12am 22 24 mph 1025.3mb 20f
9:06am 22 25 mph 1025.2mb 20f
9:00am 21 25 mph 1025.1mb 20f
8:54am 21 26 mph 1024.9mb 19f
8:48am 21 25 mph 1025mb 19f
8:42am 21 25 mph 1024.9mb 19f
8:36am 22 25 mph 1024.8mb 19f
8:30am 24 25 mph 1024.7mb 19f
8:24am 21 24 mph 1024.8mb 19f
8:18am 21 25 mph 1024.8mb 19f
8:12am 22 25 mph 1024.7mb 18f
8:06am 21 24 mph 1024.5mb 18f
8:00am 20 23 mph 1024.5mb 18f
7:54am 20 22 mph 1024.5mb 17f
7:48am 18 23 mph 1024.3mb 17f
7:42am 20 24 mph 1024.3mb 17f
7:36am 21 26 mph 1024.2mb 18f
7:30am 22 26 mph 1024.1mb 18f
7:24am 24 28 mph 1023.9mb 18f
7:18am 24 29 mph 1023.7mb 18f
7:12am 25 29 mph 1023.7mb 19f
7:06am 22 31 mph 1023.7mb 19f
7:00am 24 29 mph 1023.6mb 19f
6:54am 26 30 mph 1023.4mb 19f
6:48am 26 31 mph 1023.2mb 19f
6:42am 25 30 mph 1023.1mb 19f
6:36am 25 29 mph 1023mb 19f
6:30am 23 28 mph 1023mb 19f
6:24am 20 28 mph 1022.9mb 19f
6:18am 25 30 mph 1022.6mb 19f
6:12am 22 26 mph 1022.5mb 19f
6:06am 23 28 mph 1022.4mb 19f
6:00am 22 26 mph 1022.4mb 19f
5:54am 22 26 mph 1022.3mb 19f
5:48am 21 25 mph - -
5:42am 23 28 mph 1022.1mb 19f
5:36am 22 26 mph 1022.1mb 19f
5:30am 21 24 mph 1022.1mb 19f
5:24am 20 23 mph 1022mb 19f
5:18am 18 21 mph 1021.9mb 19f
5:12am 18 21 mph 1021.8mb 19f
5:06am 18 22 mph 1021.6mb 19f
5:00am 18 21 mph 1021.4mb 19f
4:54am 20 24 mph 1021.4mb 19f
4:48am 21 26 mph 1021.2mb 19f
4:42am 21 25 mph 1021.2mb 19f
4:36am 21 23 mph 1021.1mb 19f
4:30am 17 21 mph 1021.1mb 19f
4:24am 16 20 mph 1020.9mb 19f
4:18am 16 20 mph 1020.9mb 19f
4:12am 16 20 mph 1020.8mb 19f
4:06am 16 20 mph 1020.7mb 19f
4:00am 16 21 mph 1020.5mb 18f
3:54am 16 21 mph 1020.6mb 18f
3:48am 17 20 mph 1020.6mb 18f
3:42am 11 18 mph 1020.5mb 18f
3:36am 9 18 mph 1020.6mb 18f
3:30am 13 20 mph 1020.5mb 18f
3:24am 14 21 mph 1020.5mb 18f
3:18am 14 17 mph 1020.5mb 18f
3:12am 11 20 mph 1020.5mb 18f
3:06am 14 20 mph 1020.5mb 19f
3:00am 13 18 mph 1020.5mb 19f
2:54am 13 18 mph 1020.5mb 19f
2:48am 13 21 mph 1020.5mb 19f
2:42am 18 22 mph 1020.5mb 19f
2:36am 17 21 mph 1020.5mb 19f
2:30am 17 22 mph 1020.4mb 19f
2:24am 16 20 mph 1020.4mb 19f
2:18am 15 18 mph 1020.3mb 19f
2:12am 14 20 mph 1020.3mb 19f
2:06am 14 20 mph 1020.5mb 19f
2:00am 14 18 mph 1020.4mb 19f
1:54am 15 17 mph 1020.4mb 19f
1:48am 15 18 mph 1020.4mb 19f
1:42am 15 18 mph 1020.4mb 19f
1:36am 15 18 mph 1020.4mb 19f
1:30am 14 20 mph 1020.5mb 19f
1:24am 16 21 mph 1020.5mb 19f
1:18am 17 20 mph 1020.7mb 19f
1:12am 16 20 mph 1020.7mb 19f
1:06am 17 20 mph 1020.8mb 19f
1:00am 18 21 mph 1020.7mb 19f
12:54am 16 21 mph 1020.8mb 19f
12:48am 18 21 mph 1021mb -
12:24am 15 18 mph 1020.8mb 20f
12:00am 16 18 mph - 20f
Sun 03/01 11:42pm 16 17 mph 1020.5mb 20f
11:36pm 16 18 mph 1020.6mb 20f
11:30pm 15 18 mph 1020.6mb 20f
11:24pm 17 21 mph 1020.6mb 20f
11:18pm 18 22 mph 1020.6mb 20f
11:12pm 17 20 mph 1020.5mb 20f
11:06pm 18 21 mph 1020.5mb 21f
11:00pm 17 21 mph - -
10:42pm 17 21 mph 1020.5mb 21f
10:36pm 17 20 mph 1020.5mb 21f
10:30pm 16 21 mph 1020.5mb 21f
10:24pm 17 20 mph 1020.4mb 21f
10:00pm 16 18 mph 1020.3mb 21f
9:54pm 14 17 mph 1020.3mb -
9:48pm 13 18 mph 1020.3mb 21f
9:30pm 13 16 mph 1020.4mb 21f
9:24pm 13 18 mph 1020.5mb 21f
9:00pm 11 17 mph 1020.5mb 22f
8:54pm 11 16 mph 1020.4mb 22f
8:48pm 9 16 mph 1020.5mb 22f
8:42pm 10 16 mph 1020.5mb 22f
8:36pm 11 16 mph 1020.5mb 22f
8:30pm 10 16 mph - -
8:24pm 8 15 mph 1020.6mb 22f
8:18pm 9 14 mph 1020.7mb 22f
8:12pm 8 14 mph 1020.8mb 22f
7:48pm 9 14 mph - -
7:42pm 8 13 mph 1020.7mb 22f
7:36pm 8 11 mph 1020.9mb 22f
7:30pm 7 11 mph 1020.9mb 22f
7:24pm 6 10 mph 1020.9mb 22f
7:18pm 6 9 mph 1021mb 21f
7:00pm 8 9 mph 1021.2mb 21f
6:54pm 7 9 mph 1021.3mb 21f
6:48pm 7 9 mph 1021.4mb 21f
6:42pm 7 9 mph 1021.5mb 22f
6:36pm 8 10 mph 1021.3mb 22f
6:30pm 8 10 mph 1021.5mb 22f
6:24pm 7 9 mph 1021.5mb 22f
6:18pm 8 10 mph 1021.5mb 22f
6:12pm 7 8 mph 1021.5mb 22f
6:06pm 6 9 mph 1021.5mb 22f
6:00pm 7 9 mph 1021.7mb 22f
5:54pm 7 9 mph 1021.7mb 22f
5:48pm 7 9 mph 1021.8mb 22f
5:36pm 8 9 mph 1021.8mb 22f
5:30pm 7 9 mph 1021.6mb 22f
5:24pm 8 9 mph 1021.6mb 22f
5:18pm 7 9 mph 1021.8mb 22f
5:12pm 8
mph
1021.8mb 22f
5:06pm 7 9 mph 1021.8mb 22f
5:00pm 7 9 mph 1022mb 22f
4:54pm 7 10 mph 1022.1mb 22f
4:48pm 6 9 mph 1022.1mb 22f
4:42pm 6 9 mph 1022.2mb 22f
4:36pm 6 8 mph 1022.1mb 22f
4:30pm 6 8 mph 1022.2mb 22f
4:24pm 6 10 mph 1022.3mb 22f
4:18pm 7 9 mph 1022.3mb 22f
4:12pm 7 9 mph 1022.3mb 22f
4:06pm 8 9 mph 1022.3mb 22f
4:00pm 8 9 mph 1022.3mb 22f
3:54pm 5 8 mph 1022.3mb 22f
3:48pm 7 9 mph 1022.3mb 22f
3:42pm 7 8 mph 1022.5mb 22f
3:36pm 6 8 mph 1022.6mb 22f
3:30pm 6 9 mph 1022.6mb 22f
3:24pm 6 8 mph 1022.7mb 22f
3:18pm 6 9 mph 1022.7mb 22f
3:12pm 7 9 mph 1022.7mb 22f
3:06pm 7 9 mph 1022.8mb 22f
3:00pm 6 9 mph 1022.9mb 22f
2:54pm 7 8 mph 1023mb 22f
2:42pm 7 8 mph 1022.9mb 22f
2:36pm 7 8 mph 1022.9mb 23f
2:30pm 7 8 mph 1022.9mb 23f
2:24pm 6 8 mph 1023mb 23f
2:18pm 6 8 mph - -
2:12pm 7 8 mph 1023.3mb 23f
2:06pm 7 8 mph 1023.2mb 23f
2:00pm 5 6 mph 1023.3mb 23f
1:54pm 6 7 mph 1023.3mb 23f
1:48pm 6 7 mph 1023.4mb 24f
1:42pm 7
mph
1023.4mb 24f
1:36pm 5 7 mph 1023.3mb 24f
1:30pm 5 6 mph 1023.3mb 24f
1:24pm 5 7 mph 1023.4mb 24f
1:18pm 6 7 mph 1023.6mb 24f
1:12pm 5 6 mph 1023.8mb 23f
1:06pm 6 7 mph 1024.1mb 24f
1:00pm 5 6 mph 1024.1mb 24f
12:54pm 5 6 mph 1024.2mb 24f
12:48pm 6
mph
1024.3mb 24f
12:36pm 3 6 mph 1024.5mb 24f
12:30pm 6 7 mph 1024.6mb 24f
12:24pm 6 7 mph 1024.6mb 24f
12:18pm 6 7 mph 1024.7mb 24f
12:12pm 6 7 mph 1024.8mb 24f
12:06pm 6 7 mph 1024.9mb 24f
12:00pm 6 7 mph 1025.1mb -
11:54am 6 7 mph 1025.2mb 24f
11:48am 6 7 mph 1025.3mb 24f
11:42am 6 7 mph 1025.4mb 24f
11:36am 6 7 mph 1025.4mb 24f
11:30am 7
mph
1025.7mb 24f
11:24am 6 7 mph 1025.7mb 24f
11:12am 6 7 mph 1026mb 24f
11:06am 6 7 mph 1026.1mb 24f
11:00am 5 7 mph 1026.2mb 24f
10:54am 6 8 mph 1026.2mb 24f
10:48am 7 8 mph 1026.3mb -
10:42am 7
mph
1026.5mb 23f
10:36am 6 8 mph 1026.7mb 23f
10:30am 7 8 mph 1026.8mb 23f
10:24am 7 8 mph 1026.9mb 23f
10:18am 7 8 mph 1027mb 23f
10:12am 6 7 mph 1027mb 23f
10:06am 5
mph
1027.2mb 23f
10:00am 2 3 mph 1027.2mb 23f
9:54am 2
mph
1027.4mb 23f
9:48am  -  2 mph 1027.4mb 23f
9:42am 1 2 mph 1027.5mb 22f
9:36am 2
mph
1027.6mb 23f
9:30am  -  2 mph 1027.7mb 24f
9:24am  -  1 mph 1027.7mb 23f
9:18am  -  2 mph 1027.9mb 22f
9:12am 1 2 mph 1027.9mb 21f
9:06am 2 3 mph 1028.1mb 21f
9:00am 2 5 mph 1028mb 20f
8:54am 3 5 mph 1028.1mb 20f
8:48am 3
mph
1028.1mb 20f
8:42am 3
mph
1028.1mb 20f
8:24am  -  1 mph 1028.4mb -
8:18am  -  1 mph 1028.4mb 20f
8:12am  -  1 mph 1028.5mb 19f
8:06am  -  1 mph 1028.6mb 19f
8:00am 1 2 mph 1028.9mb 18f
7:54am 2
mph
1029mb 18f
7:48am 1 2 mph 1029.1mb 18f
7:42am  -  1 mph 1029.2mb 18f
7:36am 1 2 mph 1029.2mb 17f
7:30am 2
mph
1029.3mb 17f
7:24am 1 2 mph 1029.3mb 17f
7:00am  -  1 mph 1029.5mb 17f
6:54am 1
mph
1029.6mb 17f
6:48am  -  2 mph 1029.5mb 17f
6:42am 1
mph
1029.5mb -
6:36am 1
mph
1029.6mb 17f
6:30am  -  1 mph 1029.6mb 17f
6:24am  -  2 mph 1029.6mb 16f
6:18am 1 2 mph 1029.7mb 16f
6:12am  -  1 mph 1029.7mb 16f
6:06am  -  1 mph 1029.8mb 16f
6:00am  -  1 mph 1030mb 16f
5:54am  -  1 mph 1030.1mb 16f
5:42am  -  1 mph 1030.4mb 16f
5:36am  -  2 mph 1030.4mb 15f
5:30am 1 2 mph 1030.5mb 15f
5:24am 2 3 mph 1030.5mb 15f
5:18am 2 5 mph 1030.6mb 15f
5:12am 3 5 mph 1030.8mb 15f
5:06am 3 5 mph 1030.9mb 14f
5:00am 3 5 mph 1031mb 14f
4:54am 3 5 mph 1031.1mb 14f
4:48am 2 5 mph 1031.2mb 14f
4:42am 3 5 mph 1031.3mb 14f
4:36am 3 5 mph 1031.4mb 13f
4:30am 3 6 mph 1031.4mb 13f
4:24am 5 6 mph 1031.4mb 13f
4:18am 5 6 mph 1031.3mb 13f
4:12am 5 7 mph 1031.4mb 13f
4:06am 5 6 mph 1031.5mb 13f
4:00am 5 6 mph 1031.5mb 13f
3:54am 6 8 mph 1031.6mb 13f
3:48am 6 8 mph 1031.6mb 14f
3:42am 5 6 mph 1031.7mb 13f
3:36am 5 7 mph 1031.8mb 13f
3:30am  -  mph 1031.8mb 13f
3:24am 3
mph
1031.7mb 13f
3:18am 3
mph
1031.8mb 13f
3:12am 1 2 mph 1031.9mb 13f
3:06am 1 2 mph 1031.9mb 13f
3:00am 2 3 mph 1031.9mb 13f
2:54am  -  1 mph 1031.7mb 13f
2:48am 1 2 mph 1031.9mb 13f
2:42am 2
mph
1032mb 13f
2:24am  -  1 mph - -
2:18am  -  1 mph 1032.4mb 12f
2:12am  -  1 mph 1032.7mb 12f
2:06am  -  2 mph 1032.7mb 12f
2:00am 1 3 mph 1032.7mb 12f
1:54am 2 5 mph 1032.7mb 12f
1:48am 2 3 mph 1032.9mb 12f
1:42am 2 3 mph 1033mb 12f
1:36am 1 2 mph 1033.1mb 11f
1:30am 1
mph
1033.2mb 11f
1:24am  -  1 mph 1033.4mb 11f
1:18am 1 2 mph 1033.5mb 11f
1:12am 2 3 mph 1033.6mb 11f
1:06am 3
mph
1033.7mb 11f
1:00am 2
mph
1033.8mb 10f
12:54am 2 3 mph 1033.9mb 10f
12:48am 2 7 mph 1033.8mb 10f
12:42am 5 7 mph 1033.6mb 10f
12:24am 6 7 mph 1033.6mb 9f
12:18am 5 7 mph 1033.6mb 10f
Sat 02/28 11:54pm 6 7 mph 1033.8mb 10f
11:48pm 3 7 mph 1033.9mb 10f
11:42pm 3
mph
1034.1mb 10f
11:36pm 2 5 mph 1034.5mb 10f
11:30pm 3 5 mph 1034.6mb 10f
11:24pm 2 3 mph 1034.8mb 9f
11:18pm 1 5 mph 1035mb 10f
11:12pm 2 3 mph 1035.1mb 10f
11:06pm  -  3 mph 1035.2mb 10f
11:00pm 3 5 mph 1035.3mb 10f
10:54pm 2 6 mph 1035.4mb 10f
10:48pm 3 5 mph 1035.6mb 10f
10:42pm 3
mph
1035.7mb 10f
10:36pm 2 3 mph 1035.7mb 10f
10:30pm 3 6 mph 1035.6mb 10f
10:24pm 5 6 mph 1035.6mb 10f
10:18pm 6 7 mph 1035.7mb 10f
10:12pm 5 6 mph 1035.6mb 10f
10:06pm 5 6 mph 1035.7mb 10f
9:48pm 3 6 mph 1036mb 11f
9:42pm 5 6 mph 1036mb 11f
9:36pm 5 6 mph 1036.2mb 11f
9:30pm 5 6 mph 1036.4mb 11f
9:24pm 5
mph
1036.5mb 11f
9:18pm 3 5 mph 1036.5mb 11f
9:06pm 3 6 mph 1036.6mb 11f
9:00pm 3 5 mph 1036.7mb 12f
8:54pm 2 3 mph 1036.8mb 13f
8:48pm 1 2 mph 1036.8mb 12f
8:42pm 1 2 mph 1036.9mb 12f
8:36pm 2 3 mph 1037mb 12f
8:30pm 2 3 mph 1037.2mb 12f
8:24pm 2
mph
1037.2mb 12f
8:18pm 2 3 mph 1037.3mb 12f
8:12pm 2 3 mph - -
8:06pm 3
mph
1037.3mb 12f
8:00pm 3
mph
1037.5mb 12f
7:54pm 2 3 mph 1037.5mb 12f
7:48pm 3 5 mph 1037.5mb 12f
7:42pm 2 3 mph 1037.3mb 12f
7:36pm 3 5 mph 1037.4mb 12f
7:30pm 3 5 mph 1037.6mb 12f
7:24pm 3 5 mph 1037.9mb 11f
7:18pm 5
mph
1038mb 11f
7:12pm 5
mph
1038mb 11f
7:06pm 5
mph
1038.1mb 11f
7:00pm 3 5 mph 1038.2mb 11f
6:54pm 5
mph
1038.1mb 11f
6:48pm 3 5 mph 1038.2mb 11f
6:42pm 3
mph
1038.2mb 11f
6:36pm 3
mph
1038.3mb 11f
6:30pm 3 5 mph 1038.3mb 11f
6:24pm 3 5 mph 1038.3mb 11f
6:18pm 3 5 mph 1038.2mb 11f
6:12pm 3 5 mph 1038.2mb 11f
6:06pm 5
mph
1038.2mb 10f
6:00pm 3 5 mph 1038.3mb 10f
5:54pm 3 5 mph 1038.1mb 10f
5:48pm 3 5 mph 1038.1mb 10f
4:54pm 3 5 mph 1038.5mb 11f
4:48pm 3 5 mph 1038.6mb 11f
4:42pm 3 5 mph 1038.7mb 11f
4:36pm 3 5 mph 1038.7mb 12f
4:30pm 5 6 mph 1038.9mb 12f
4:24pm 5 6 mph 1038.9mb 12f
4:18pm 5 6 mph 1038.8mb 12f
4:12pm 5 7 mph - -
4:06pm 6 8 mph 1039mb 13f
4:00pm 6 7 mph 1039mb 13f
3:54pm 6 7 mph 1039mb 13f
3:48pm 6 7 mph 1039mb 13f
3:42pm 6 8 mph 1039.1mb 13f
3:36pm 6 8 mph 1039.1mb 14f
3:30pm 6 8 mph 1039.3mb 14f
3:24pm 7 9 mph 1039.3mb 14f
3:18pm 8 9 mph 1039.4mb 14f
3:12pm 8 9 mph 1039.4mb 14f
3:06pm 7 8 mph 1039.4mb 14f
2:54pm 8 9 mph 1039.4mb 14f
2:48pm 6 8 mph 1039.5mb 14f
2:42pm 7 8 mph 1039.5mb 15f
2:36pm 7 8 mph 1039.6mb 14f
2:24pm 7 9 mph 1039.8mb 14f
2:18pm 6 8 mph 1039.8mb 15f
2:12pm 6 8 mph 1039.7mb 15f
2:06pm 6 9 mph 1039.7mb 15f
2:00pm 6 9 mph 1039.8mb 15f
1:54pm 8 10 mph 1039.9mb 15f
1:48pm 7 10 mph 1040mb 15f
1:42pm 7 9 mph 1040mb 15f
1:36pm 9 11 mph 1040mb 15f
1:30pm 9 10 mph 1040.1mb 15f
1:24pm 10
mph
1040.1mb 14f
1:18pm 9 13 mph 1040.1mb 14f
1:12pm 11 13 mph 1040.1mb 14f
1:06pm 11 14 mph 1040.2mb 14f
1:00pm 13 14 mph 1040.3mb 14f
12:54pm 11 14 mph 1040.3mb 14f
12:48pm 11 13 mph 1040.5mb 14f
12:42pm 11 14 mph 1040.6mb 13f
12:36pm 13 14 mph 1040.7mb 13f
12:30pm 13 14 mph 1040.8mb 14f
12:24pm 14 15 mph 1040.9mb 13f
12:18pm 14 15 mph 1041mb 13f
12:12pm 14 15 mph 1041mb 13f
12:00pm 13 16 mph 1041.2mb 13f
11:54am 14 16 mph 1041.3mb 13f
11:48am 15 16 mph 1041.4mb 13f
11:36am 14 17 mph 1041.6mb 13f
11:30am 13 16 mph 1041.7mb 13f
11:24am 14 17 mph 1041.7mb 12f
11:18am 14 16 mph 1041.8mb 12f
11:12am 11 17 mph 1041.9mb 12f
11:06am 15 17 mph 1041.9mb 11f
11:00am 14 16 mph 1041.9mb 11f
10:54am 11 17 mph 1041.9mb 12f
10:48am 11 16 mph 1042mb 11f
10:42am 11 15 mph 1041.9mb 11f
10:36am 8 13 mph 1042mb 11f
10:30am 7 10 mph 1041.9mb 11f
10:24am 7 10 mph 1041.8mb 10f
10:18am 6 10 mph 1041.7mb 10f
10:12am 7 9 mph 1041.7mb 10f
10:06am 5 8 mph 1041.7mb 10f
10:00am 5 9 mph 1041.7mb 10f
9:54am 3 6 mph 1041.6mb 9f
9:48am 3 6 mph 1041.6mb 7f
9:42am 2 5 mph 1041.6mb 7f
9:36am 2 3 mph 1041.6mb 8f
9:30am 2 5 mph 1041.6mb 7f
9:24am 2 3 mph 1041.6mb 6f
9:18am 2 3 mph 1041.6mb 5f
9:12am 3 6 mph 1041.6mb 4f
9:06am 6 8 mph 1041.6mb 4f
9:00am 3 5 mph 1041.6mb 3f
8:54am 2 3 mph 1041.6mb 3f
8:48am 2 5 mph 1041.6mb 3f
8:42am 2 5 mph 1041.6mb 3f
8:36am 3 5 mph 1041.5mb 2f
8:30am 2 3 mph 1041.6mb 2f
8:18am 2 3 mph 1041.6mb -
8:06am 2
mph
1041.6mb -
8:00am  -  1 mph 1041.6mb 1f
7:54am  -  2 mph 1041.6mb 1f
7:48am 1 3 mph 1041.5mb -
7:42am 3 5 mph 1041.4mb -1f
7:36am 2 5 mph 1041.4mb -1f
7:30am 2 3 mph 1041.3mb -1f
7:24am 1 2 mph 1041.2mb -1f
7:18am 2 3 mph 1041.1mb -2f
7:12am 2
mph
1041mb -2f
7:06am 2 3 mph 1041mb -2f
7:00am 2 6 mph 1040.9mb -2f
6:54am 5 6 mph 1040.9mb -3f
6:48am 3 7 mph 1040.8mb -3f
6:42am 6 7 mph 1040.7mb -3f
6:36am 3 6 mph 1040.8mb -3f
6:30am 2 3 mph 1040.7mb -4f
6:24am 2 3 mph 1040.6mb -3f
6:18am 2 3 mph 1040.5mb -4f
6:12am 2 6 mph 1040.5mb -4f
6:06am 3 6 mph 1040.4mb -3f
6:00am 3 5 mph 1040.4mb -3f
5:54am 3 6 mph 1040.3mb -3f
5:42am 3 5 mph 1040.2mb -3f
5:36am 5 6 mph 1040.1mb -3f
5:30am 3 6 mph 1039.9mb -2f
5:24am 5 7 mph 1039.9mb -2f
5:18am 2 7 mph 1039.9mb -2f
5:12am 2 5 mph 1039.9mb -2f
5:06am 2 5 mph 1039.8mb -3f
5:00am 2 5 mph 1039.7mb -2f
4:54am 6 8 mph 1039.7mb -2f
4:48am 3 7 mph 1039.5mb -2f
4:42am 2 7 mph 1039.6mb -2f
4:36am 1 2 mph 1039.5mb -3f
4:30am 1 3 mph 1039.4mb -3f
4:24am 2 3 mph 1039.3mb -3f
4:18am 2 3 mph 1039.2mb -3f
4:12am 2 3 mph 1039.2mb -2f
4:06am 2 3 mph 1039.1mb -3f
4:00am 2 5 mph 1039.1mb -2f
3:54am 3 6 mph 1039mb -2f
3:48am 3 6 mph 1039mb -3f
3:42am 3 5 mph 1039mb -3f
3:36am 2 5 mph 1038.9mb -3f
3:30am 3 6 mph 1038.9mb -3f
3:24am 3 6 mph 1038.9mb -3f
3:18am 3 6 mph 1038.8mb -3f
3:12am 3 6 mph 1038.7mb -3f
3:06am 5 6 mph 1038.7mb -3f
3:00am 5 7 mph 1038.6mb -3f
2:54am 6 7 mph 1038.6mb -2f
2:48am 5 6 mph 1038.5mb -3f
2:42am 5 6 mph 1038.5mb -2f
2:36am 6 8 mph 1038.4mb -1f
2:30am 3 5 mph 1038.4mb -2f
2:24am 2 5 mph 1038.4mb -2f
2:18am 2 5 mph 1038.4mb -1f
2:12am 2 5 mph 1038.4mb -1f
2:06am 3 6 mph 1038.4mb -1f
2:00am 3 6 mph 1038.4mb -1f
1:54am 2 3 mph 1038.3mb -1f
1:48am 2 3 mph 1038.3mb -2f
1:42am 1 5 mph 1038.3mb -3f
1:36am 2 3 mph 1038.3mb -3f
1:30am 2 3 mph 1038.3mb -3f
1:24am 2 5 mph 1038.3mb -3f
1:18am 1 3 mph 1038.3mb -3f
1:12am 3 5 mph 1038.3mb -3f
1:06am 3 5 mph 1038.3mb -3f
1:00am 2 6 mph 1038.2mb -3f